星链-3112 (STARLINK-3112 )

导读

STARLINK-3112是美国SpaceX公司星链(Starlink)项目中的一颗低轨卫星,于2021年11月13日发射升空。星链项目旨在构建全球卫星互联网星座,为全球偏远地区等提供高速低延迟宽带服务。该卫星加入星座后,帮助拓展了星链的网络覆盖范围,推动星链从早期部署逐步迈向商业化服务,后续服务已延伸至海事、航空等多场景。

Basic Information
目录编号:
49421
目录名称:
STARLINK-3112
国际标识:
2021-104P
轨道中心:
EARTH
卫星名称:
星链-3112
卫星全名:
星链-3112 (STARLINK-3112 )
卫星状态:
在轨 (已飞行1756 天)
发射日期:
2021-11-13 UTC
国别 :
美国 (US)
星等 :
--
Orbit Information
数据来源 国际轨道数据 AOE轨道数据
星历时间 2026-09-04T09:47:38+0800
15小时前
查看轨道信息
2026-09-03T23:00:00+0800
1天前
查看轨道信息
半长轴 6848.886km 6848.864km
偏心率 0.0001412 0.0001539
轨道倾角 53.161° 53.158°
近地点辐角 81.518° 59.352°
升交点赤经 137.290° 139.383°
平近点角 278.598° 339.443°
近地点 469.781km 469.672km
远地点 471.717km 471.782km
周期 94.013分钟 94.013分钟
每日圈数 15.31697 15.317046
Detailed Information
固有亮度:
5
最大亮度:
2.5
卫星平台:
Starlink v1.5
覆盖范围:
全球
运营商:
太空探索技术公司
运营商所在国:
美国
制造商(研发单位):
太空探索技术公司
制造商所在国:
美国
使用方式:
暂无
Satellite Introduction
星链(Starlink)计划是由太空探索技术公司(SpaceX)提出的一个巨型低轨卫星互联网星座项目,计划在2019年至2024年间在太空搭建由约1.2万颗卫星组成的“星链”网络,其中1584颗将部署在地球上空550千米处的近地轨道,并从2020年开始工作。该卫星仍在工作。
2D Orbit Map
3D Orbit Map
Orbit Altitude Analysis Chart
Orbit Inclination Analysis Chart
Orbit Comprehensive Analysis Chart
View Comprehensive Chart
Conjunction Data List
Event ID Objects TCA Miss Dist (km) Collision Risk Probability Collision Risk Index (CRI) Action
CDM_260828-005704-844504-942121
2026-08-28T
00:57:31+0000
0.761 km
远距离
3.969001E-5 中风险 0.67
CDM_260906-185904-942106-263721
2026-09-06T
18:59:09+0000
1.873 km
极远距离
3.349455E-6 低风险 0.45
CDM_260827-232304-844504-942121
2026-08-27T
23:23:34+0000
2.838 km
极远距离
9.353996E-7 极低风险 0.34